Location: Bergnerzell
(49.1816°N, 10.2565°E)
Time: 21:10:48
(UTC+00:00)

COSMOS 2428 - Pass Details

Date: 23 May 2024
Orbit: 844 x 856 km, 70.9° (Epoch: 14 June)

Event Time Altitude Azimuth Distance (km) Brightness Sun altitude
Rises 01:57:03 0° 334° (NNW) 3,415 6.2 -11.5°
Reaches altitude 10° 01:59:39 10° 341° (NNW) 2,477 5.6 -11.2°
Maximum altitude 02:05:02 42° 52° (NE) 1,200 4.2 -10.7°
Drops below altitude 10° 02:10:23 10° 122° (ESE) 2,470 5.2 -10.1°
Sets 02:12:58 0° 130° (SE) 3,403 5.9 -9.8°
